Weather History for Richmond, KY

Change the Weather History Date:

Friday, May 9, 2014

  Actual Average (KLOZ) Record (KLOZ)
Temperature  
Mean Temperature 70 °F 63 °F  
Max Temperature 75 °F 75 °F 88 °F (1963)
Min Temperature 66 °F 51 °F 33 °F (1976)
Degree Days  
Heating Degree Days 0 4  
Month to date heating degree days 40  
Since 1 July heating degree days 4141  
Cooling Degree Days 6 2  
Month to date cooling degree days 13  
Year to date cooling degree days 39  
Growing Degree Days 20 (Base 50)    
Moisture  
Dew Point 58 °F    
Average Humidity 66    
Maximum Humidity 88    
Minimum Humidity 50    
Precipitation  
Precipitation 0.00 in 0.17 in 0.67 in (2009)
Month to date precipitation 1.45  
Year to date precipitation 16.80  
Sea Level Pressure  
Sea Level Pressure 30.01 in    
Wind  
Wind Speed 8 mph (SSW)    
Max Wind Speed 20 mph    
Max Gust Speed 30 mph    
Visibility 10 miles    
Events      
T = Trace of Precipitation, MM = Missing Value Source: NWS Daily Summary

Daily Weather History Graph

Daily Weather History Graph

Search for Another Location

Airport:

Trip Planner

Search our weather history database for the weather conditions in past years. The results will help you decide how hot, cold, wet, or windy it might be!

Date:

Astronomy

May. 09, 2014 Rise Set
Actual Time 6:33 AM EDT 8:34 PM EDT
Civil Twilight 6:04 AM EDT 9:03 PM EDT
Nautical Twilight 5:29 AM EDT 9:38 PM EDT
Astronomical Twilight 4:51 AM EDT 10:16 PM EDT
Moon 3:37 PM EDT (5/9) 3:28 AM EDT (5/9)
Length of Visible Light 14h 59m
Length of Day
14h 01m
Waxing Gibbous, 73% of the Moon is Illuminated
May 9
Waxing Gibbous
May 14
Full
May 21
Last Quarter
May 28
New
Jun 5
First Quarter

Hourly Weather History & Observations

Time (EDT) Temp. Dew Point Humidity Pressure Visibility Wind Dir Wind Speed Gust Speed Precip Events Conditions
12:15 AM 71.6 °F 51.8 °F 50% 30.08 in 10.0 mi South 4.6 mph - N/A   Clear
12:35 AM 69.8 °F 51.8 °F 53% 30.07 in 10.0 mi SSE 3.5 mph - N/A   Clear
12:55 AM 69.8 °F 51.8 °F 53% 30.07 in 10.0 mi South 3.5 mph - N/A   Clear
1:15 AM 69.8 °F 53.6 °F 56% 30.06 in 10.0 mi South 4.6 mph - N/A   Clear
1:35 AM 69.8 °F 53.6 °F 56% 30.05 in 10.0 mi SSE 4.6 mph - N/A   Clear
1:55 AM 69.8 °F 53.6 °F 56% 30.05 in 10.0 mi South 4.6 mph - N/A   Clear
2:15 AM 69.8 °F 53.6 °F 56% 30.04 in 10.0 mi South 4.6 mph - N/A   Clear
2:35 AM 69.8 °F 53.6 °F 56% 30.03 in 10.0 mi South 5.8 mph - N/A   Clear
2:55 AM 69.8 °F 53.6 °F 56% 30.03 in 10.0 mi SSW 4.6 mph - N/A   Clear
3:15 AM 69.8 °F 53.6 °F 56% 30.03 in 10.0 mi South 4.6 mph - N/A   Clear
3:35 AM 69.8 °F 53.6 °F 56% 30.03 in 10.0 mi South 5.8 mph - N/A   Clear
3:55 AM 69.8 °F 53.6 °F 56% 30.03 in 10.0 mi South 4.6 mph - N/A   Clear
4:15 AM 69.8 °F 53.6 °F 56% 30.03 in 10.0 mi South 5.8 mph - N/A   Clear
4:35 AM 69.8 °F 53.6 °F 56% 30.02 in 10.0 mi South 5.8 mph - N/A   Clear
4:55 AM 69.8 °F 53.6 °F 56% 30.02 in 10.0 mi South 5.8 mph - N/A   Clear
5:15 AM 69.8 °F 53.6 °F 56% 30.01 in 10.0 mi SSE 4.6 mph - N/A   Clear
5:35 AM 69.8 °F 53.6 °F 56% 30.01 in 10.0 mi South 5.8 mph - N/A   Clear
5:55 AM 69.8 °F 53.6 °F 56% 30.01 in 10.0 mi South 5.8 mph - N/A   Clear
6:15 AM 71.6 °F 53.6 °F 53% 30.00 in 10.0 mi South 5.8 mph - N/A   Clear
6:35 AM 71.6 °F 53.6 °F 53% 30.00 in 10.0 mi South 9.2 mph - N/A   Clear
6:55 AM 71.6 °F 53.6 °F 53% 30.00 in 10.0 mi South 8.1 mph - N/A   Clear
7:15 AM 71.6 °F 55.4 °F 57% 30.01 in 10.0 mi South 11.5 mph 16.1 mph N/A   Clear
7:35 AM 71.6 °F 55.4 °F 57% 30.02 in 10.0 mi SSW 10.4 mph 16.1 mph N/A   Clear
7:55 AM 71.6 °F 55.4 °F 57% 30.02 in 10.0 mi South 10.4 mph 17.3 mph N/A   Scattered Clouds
8:15 AM 71.6 °F 55.4 °F 57% 30.02 in 10.0 mi South 9.2 mph 18.4 mph N/A   Mostly Cloudy
8:35 AM 71.6 °F 57.2 °F 60% 30.01 in 10.0 mi South 8.1 mph - N/A   Scattered Clouds
8:55 AM 71.6 °F 57.2 °F 60% 30.02 in 10.0 mi South 8.1 mph 16.1 mph N/A   Scattered Clouds
9:15 AM 71.6 °F 57.2 °F 60% 30.03 in 10.0 mi SSW 9.2 mph - N/A   Scattered Clouds
9:35 AM 73.4 °F 57.2 °F 57% 30.03 in 10.0 mi South 12.7 mph 19.6 mph N/A   Scattered Clouds
9:55 AM 73.4 °F 59.0 °F 61% 30.03 in 10.0 mi SSW 11.5 mph 17.3 mph N/A   Clear
10:15 AM 73.4 °F 59.0 °F 61% 30.03 in 10.0 mi SSW 16.1 mph 20.7 mph N/A   Clear
10:35 AM 73.4 °F 59.0 °F 61% 30.03 in 10.0 mi South 12.7 mph 20.7 mph N/A   Clear
10:55 AM 73.4 °F 59.0 °F 61% 30.02 in 10.0 mi SSW 9.2 mph 24.2 mph N/A   Clear
11:15 AM 73.4 °F 59.0 °F 61% 30.02 in 10.0 mi SSW 12.7 mph 20.7 mph N/A   Mostly Cloudy
11:35 AM 75.2 °F 59.0 °F 57% 30.02 in 10.0 mi SSW 13.8 mph 21.9 mph N/A   Scattered Clouds
11:55 AM 75.2 °F 59.0 °F 57% 30.02 in 10.0 mi SSW 18.4 mph 29.9 mph N/A   Mostly Cloudy
12:15 PM 75.2 °F 60.8 °F 61% 30.02 in 10.0 mi SSW 12.7 mph 19.6 mph N/A   Scattered Clouds
12:35 PM 75.2 °F 59.0 °F 57% 30.01 in 10.0 mi SSW 19.6 mph 28.8 mph N/A   Scattered Clouds
12:55 PM 75.2 °F 59.0 °F 57% 30.00 in 10.0 mi SSW 12.7 mph 23.0 mph N/A   Scattered Clouds
1:15 PM 75.2 °F 59.0 °F 57% 30.00 in 10.0 mi SSW 11.5 mph 20.7 mph N/A   Scattered Clouds
1:35 PM 73.4 °F 59.0 °F 61% 29.98 in 10.0 mi SSW 12.7 mph 19.6 mph N/A   Mostly Cloudy
1:55 PM 71.6 °F 60.8 °F 69% 29.98 in 10.0 mi South 9.2 mph - N/A   Overcast
2:15 PM 69.8 °F 62.6 °F 78% 30.00 in 3.0 mi WSW 13.8 mph - N/A   Overcast
2:35 PM 68.0 °F 62.6 °F 83% 29.96 in 10.0 mi SSE 10.4 mph - N/A   Overcast
2:55 PM 68.0 °F 62.6 °F 83% 29.98 in 10.0 mi SW 10.4 mph - N/A   Overcast
3:15 PM 69.8 °F 64.4 °F 83% 29.97 in 10.0 mi SW 6.9 mph - N/A   Overcast
3:35 PM 68.0 °F 62.6 °F 83% 29.98 in 10.0 mi SW 10.4 mph - N/A   Overcast
3:55 PM 69.8 °F 64.4 °F 83% 29.98 in 10.0 mi SW 6.9 mph - N/A   Overcast
4:15 PM 68.0 °F 62.6 °F 83% 29.98 in 7.0 mi SW 18.4 mph 28.8 mph N/A   Overcast
4:35 PM 66.2 °F 62.6 °F 88% 29.96 in 10.0 mi SW 8.1 mph - N/A   Overcast
4:55 PM 68.0 °F 62.6 °F 83% 29.96 in 10.0 mi SW 6.9 mph - N/A   Overcast
5:15 PM 69.8 °F 64.4 °F 83% 29.96 in 10.0 mi SW 10.4 mph - N/A   Mostly Cloudy
5:35 PM 69.8 °F 62.6 °F 78% 29.96 in 10.0 mi SW 11.5 mph - N/A   Scattered Clouds
5:55 PM 69.8 °F 62.6 °F 78% 29.96 in 10.0 mi SW 8.1 mph - N/A   Clear
6:15 PM 69.8 °F 62.6 °F 78% 29.96 in 10.0 mi SW 8.1 mph - N/A   Clear
6:35 PM 69.8 °F 62.6 °F 78% 29.96 in 10.0 mi SW 6.9 mph - N/A   Clear
6:55 PM 69.8 °F 62.6 °F 78% 29.96 in 10.0 mi SSW 9.2 mph - N/A   Mostly Cloudy
7:15 PM 69.8 °F 60.8 °F 73% 29.97 in 10.0 mi SSW 9.2 mph - N/A   Scattered Clouds
7:35 PM 69.8 °F 60.8 °F 73% 29.97 in 10.0 mi SSW 11.5 mph - N/A   Clear
7:55 PM 69.8 °F 59.0 °F 68% 29.98 in 10.0 mi SW 9.2 mph - N/A   Scattered Clouds
8:15 PM 69.8 °F 59.0 °F 68% 29.98 in 10.0 mi SSW 9.2 mph - N/A   Scattered Clouds
8:35 PM 68.0 °F 60.8 °F 78% 29.98 in 10.0 mi SW 9.2 mph - N/A   Clear
8:55 PM 68.0 °F 60.8 °F 78% 29.98 in 10.0 mi SSW 9.2 mph - N/A   Clear
9:15 PM 68.0 °F 60.8 °F 78% 29.99 in 10.0 mi SW 11.5 mph - N/A   Clear
9:35 PM 68.0 °F 60.8 °F 78% 29.99 in 10.0 mi SSW 10.4 mph - N/A   Clear
9:55 PM 68.0 °F 60.8 °F 78% 30.00 in 10.0 mi SW 9.2 mph 16.1 mph N/A   Clear
10:15 PM 68.0 °F 60.8 °F 78% 30.01 in 10.0 mi SW 10.4 mph - N/A   Clear
10:35 PM 68.0 °F 60.8 °F 78% 30.01 in 10.0 mi SSW 8.1 mph - N/A   Clear
10:55 PM 68.0 °F 60.8 °F 78% 30.02 in 10.0 mi SSW 9.2 mph - N/A   Clear
11:15 PM 68.0 °F 59.0 °F 73% 30.02 in 10.0 mi SSW 9.2 mph - N/A   Clear
11:35 PM 68.0 °F 57.2 °F 68% 30.02 in 10.0 mi SSW 10.4 mph 18.4 mph N/A   Clear
11:55 PM 68.0 °F 57.2 °F 68% 30.02 in 10.0 mi SW 10.4 mph - N/A   Scattered Clouds